Погода в Орехово

Россия / Санкт-Петербург и Ленинградская область     60°29′01″N   30°14′03″E
темп.,
°C
ветер,
м/с
пор.,
м/с
влажн.,
%
обл.,
%
осадки,
мм/ч
давл.,
гПа
погр.,
м
27 июля, вт
вт2700:00+18з22709 0.0 102020
03:00+17юз22682 0.0 102019
06:00+18з11640 0.0 102011
09:00+25з12395 0.0 1019501
12:00+30юз11285 0.0 10182505
15:00+30вюв222785 0.0 10162756
18:00+26вюв253788 0.0 1016560
21:00+23юв254791 0.0 1015115
28 июля, ср
ср2800:00+20в255686 0.1 1015122
03:00+17юв2371100 0.1 101454
06:00+18вюв2567100 0.0 1012104
09:00+23юв2349100 0.0 1011399
12:00+24ю1248100 0.0 1010932
15:00+26ю2347100 0.1 10081535
18:00+20юз1180100 0.4 1007110
21:00+18ююв1193100 2.7 100634
29 июля, чт
чт2900:00+16юв119848 2.8 100515
03:00+16зюз399895 3.0 1004264
06:00+16зюз299632 0.0 1003273
09:00+20зюз488262 0.4 1002689
12:00+24зюз6853100 0.0 10011629
15:00+24зюз6104740 0.0 10001928
18:00+23зюз6135123 0.0 10001550
21:00+20зюз5136028 0.0 10001064
30 июля, пт
пт3000:00+18зюз513745 0.0 1000844
03:00+17зюз41184100 0.0 1000790
06:00+17юз51185100 0.0 999780
09:00+19зюз610645 0.0 10001231
12:00+22зюз6104656 0.0 9991953
15:00+22юз7104337 0.0 9992337
18:00+20юз5125169 0.1 9991918
21:00+16юз41273100 0.4 998834
31 июля, сб
сб3100:00+13ю2794100 0.5 997192
03:00+14ююз4139194 0.6 996582
06:00+14ююз41287100 0.0 994782
09:00+13ююз51194100 1.1 993761
12:00+15ююз4995100 1.4 993750
15:00+20з586459 2.4 9941455
18:00+21з465244 0.2 9971653
21:00+16зюз37740 0.2 998269